星链-35543(STARLINK-35543)

导读 | 豆包AI

STARLINK-35543是美国SpaceX公司星链星座的一员,于2025年10月26日发射升空,部署在近地轨道。它是星链全球互联网星座组网的组成部分,依托星链低轨卫星网络的技术优势,可提供低延迟、高速率的宽带互联网服务,重点填补偏远、基础设施匮乏地区的网络覆盖空白,同时支持民用宽带、特殊场景通信等多元应用需求,助力星链星座规模与服务能力持续拓展。

基本信息
目录编号:
66201
目录名称:
STARLINK-35543
国际标识:
2025-243AA
轨道中心:
EARTH
卫星名称:
星链-35543
卫星全名:
星链-35543(STARLINK-35543)
卫星状态:
在轨 (已飞行211 天)
发射日期:
2025-10-26 UTC
国别 :
美国 (US)
星等 :
--
轨道信息
数据来源 国际轨道数据
星历时间: 2026-05-25T08:32:25+0800
11小时前
查看轨道信息
半长轴: 6848.819km
偏心率: 0.0001356
轨道倾角: 53.158°
近地点辐角 79.087°
升交点赤经 250.480°
平近点角 281.028°
近地点: 469.753km
远地点: 471.611km
周期: 94.012分钟
每日圈数: 15.317197
详细信息
固有亮度:
5
最大亮度:
2.5
卫星平台:
Starlink V1.0
覆盖范围:
全球
运营商:
太空探索技术公司
运营商所在国:
美国
制造商(研发单位):
太空探索技术公司
制造商所在国:
美国
使用方式:
暂无
卫星简介
Starlink 计划是 SpaceX 推出的全球卫星互联网项目,通过发射低轨道卫星,为全球尤其是偏远地区提供高速、低延迟的互联网服务。自 2019 年起,Starlink 已部署数千颗卫星,旨在缩小全球数字鸿沟,推动互联网普及。该项目还为军事、航空等行业提供通信支持,带来广泛经济效益。
2D轨道图
3D轨道图
轨道高度分析图
轨道倾角分析图
轨道综合分析图
查看轨道综合分析图